Weather History for KMCD - May, 2014

Change the Weather History Date:

Friday, May 16, 2014

  Actual Average Record
Temperature  
Mean Temperature 36 °F -  
Max Temperature 40 °F 54 °F 80 °F (1977)
Min Temperature 32 °F 39 °F 27 °F (1983)
Degree Days  
Heating Degree Days 29    
Moisture  
Dew Point 33 °F    
Average Humidity 89    
Maximum Humidity 100    
Minimum Humidity 74    
Precipitation  
Precipitation 0.00 in - - ()
Sea Level Pressure  
Sea Level Pressure 29.96 in    
Wind  
Wind Speed 10 mph (West)    
Max Wind Speed 16 mph    
Max Gust Speed 23 mph    
Visibility 10 miles    
Events Snow    
Averages and records for this station are not official NWS values.
T = Trace of Precipitation, MM = Missing Value Source: NWS Daily Summary

Daily Weather History Graph

Daily Weather History Graph

Search for Another Location

Airport or City:

Trip Planner

Search our weather history database for the weather conditions in past years. The results will help you decide how hot, cold, wet, or windy it might be!

Date:

Astronomy

May. 16, 2014 Rise Set
Actual Time 6:05 AM EDT 9:04 PM EDT
Civil Twilight 5:30 AM EDT 9:40 PM EDT
Nautical Twilight 4:45 AM EDT 10:25 PM EDT
Astronomical Twilight 3:51 AM EDT 11:19 PM EDT
Moon 11:10 PM EDT (5/16) 7:46 AM EDT (5/16)
Length of Visible Light 16h 09m
Length of Day
14h 59m
Waning Gibbous, 95% of the Moon is Illuminated
May 16
Waning Gibbous
May 21
Last Quarter
May 28
New
Jun 5
First Quarter
Jun 13
Full

Hourly Weather History & Observations

Time (EDT) Temp. Windchill Dew Point Humidity Pressure Visibility Wind Dir Wind Speed Gust Speed Precip Events Conditions
12:18 AM 34.0 °F 28.0 °F 34.0 °F 100% 29.89 in 7.0 mi NW 6.9 mph - N/A   Overcast
12:37 AM 34.0 °F 26.0 °F 34.0 °F 100% 29.90 in 10.0 mi WNW 10.4 mph - N/A   Overcast
12:58 AM 34.0 °F 26.6 °F 33.8 °F 99% 29.89 in 10.0 mi WNW 9.2 mph - N/A   Overcast
1:18 AM 34.0 °F 25.5 °F 33.8 °F 99% 29.89 in 10.0 mi WNW 11.5 mph 17.3 mph N/A   Overcast
1:37 AM 34.0 °F 25.5 °F 33.4 °F 98% 29.89 in 10.0 mi WNW 11.5 mph 17.3 mph N/A   Overcast
1:58 AM 33.8 °F 27.0 °F 33.1 °F 97% 29.89 in 10.0 mi WNW 8.1 mph - N/A   Overcast
2:18 AM 33.8 °F 27.0 °F 32.9 °F 96% 29.89 in 10.0 mi NW 8.1 mph 17.3 mph N/A   Overcast
2:37 AM 33.6 °F 25.0 °F 32.9 °F 97% 29.90 in 10.0 mi WNW 11.5 mph - N/A   Overcast
2:58 AM 33.3 °F 24.6 °F 32.9 °F 99% 29.90 in 10.0 mi NW 11.5 mph - N/A   Overcast
3:18 AM 33.4 °F 29.1 °F 32.9 °F 98% 29.91 in 10.0 mi NW 4.6 mph - N/A   Overcast
3:37 AM 33.4 °F 25.9 °F 33.1 °F 99% 29.91 in 10.0 mi WNW 9.2 mph - N/A   Overcast
3:58 AM 33.3 °F 25.7 °F 32.7 °F 98% 29.90 in 7.0 mi West 9.2 mph - N/A   Overcast
4:18 AM 32.9 °F 24.7 °F 32.4 °F 98% 29.90 in 10.0 mi WNW 10.4 mph 16.1 mph N/A   Overcast
4:38 AM 32.9 °F 25.3 °F 32.4 °F 98% 29.91 in 10.0 mi WNW 9.2 mph - N/A   Overcast
4:58 AM 32.9 °F 24.7 °F 32.4 °F 98% 29.91 in 10.0 mi West 10.4 mph - N/A   Overcast
5:17 AM 32.9 °F 25.3 °F 32.5 °F 99% 29.92 in 10.0 mi WNW 9.2 mph 16.1 mph N/A   Overcast
5:38 AM 33.1 °F 23.9 °F 32.5 °F 98% 29.91 in 10.0 mi WNW 12.7 mph - N/A   Overcast
5:58 AM 33.1 °F 24.4 °F 32.4 °F 97% 29.92 in 10.0 mi WNW 11.5 mph 17.3 mph N/A   Overcast
6:17 AM 32.9 °F 23.7 °F 32.2 °F 97% 29.92 in 10.0 mi WNW 12.7 mph - N/A   Overcast
6:38 AM 32.9 °F 24.7 °F 32.0 °F 96% 29.93 in 5.0 mi WNW 10.4 mph - N/A   Overcast
6:58 AM 32.7 °F 25.0 °F 32.0 °F 97% 29.93 in 10.0 mi WNW 9.2 mph 17.3 mph N/A   Mostly Cloudy
7:18 AM 33.3 °F 24.6 °F 32.0 °F 95% 29.93 in 10.0 mi West 11.5 mph - N/A   Mostly Cloudy
7:38 AM 33.4 °F 24.8 °F 32.0 °F 94% 29.93 in 10.0 mi WNW 11.5 mph 17.3 mph N/A   Mostly Cloudy
7:57 AM 34.3 °F 27.0 °F 32.4 °F 92% 29.93 in 10.0 mi WNW 9.2 mph 16.1 mph N/A   Scattered Clouds
8:18 AM 35.6 °F 27.1 °F 32.5 °F 89% 29.93 in 10.0 mi WNW 12.7 mph 18.4 mph N/A   Scattered Clouds
8:38 AM 35.6 °F 27.5 °F 32.2 °F 87% 29.94 in 10.0 mi West 11.5 mph 18.4 mph N/A   Mostly Cloudy
8:57 AM 35.6 °F 28.6 °F 32.0 °F 87% 29.94 in 10.0 mi WNW 9.2 mph - N/A   Overcast
9:18 AM 35.6 °F 26.6 °F 32.0 °F 87% 29.95 in 10.0 mi West 13.8 mph 19.6 mph N/A   Overcast
9:38 AM 35.1 °F 26.9 °F 32.0 °F 89% 29.95 in 10.0 mi West 11.5 mph - N/A   Overcast
9:58 AM 37.4 °F 29.8 °F 32.5 °F 83% 29.95 in 10.0 mi WNW 11.5 mph 17.3 mph N/A Snow Light Snow
10:18 AM 37.9 °F 32.1 °F 32.9 °F 82% 29.95 in 10.0 mi WNW 8.1 mph - N/A   Overcast
10:38 AM 36.3 °F 28.0 °F 33.6 °F 90% 29.96 in 7.0 mi West 12.7 mph - N/A Snow Light Snow
10:58 AM 37.0 °F 28.9 °F 33.6 °F 87% 29.97 in 10.0 mi West 12.7 mph - N/A   Overcast
11:18 AM 38.1 °F 29.1 °F 33.6 °F 84% 29.96 in 10.0 mi West 16.1 mph - N/A   Overcast
11:38 AM 38.7 °F 31.4 °F 34.0 °F 83% 29.95 in 10.0 mi West 11.5 mph 19.6 mph N/A   Overcast
11:58 AM 38.5 °F 32.1 °F 33.6 °F 83% 29.96 in 10.0 mi WSW 9.2 mph 19.6 mph N/A   Overcast
12:18 PM 38.8 °F 31.6 °F 34.0 °F 83% 29.96 in 10.0 mi West 11.5 mph - N/A   Overcast
12:38 PM 39.2 °F 33.6 °F 33.3 °F 79% 29.96 in 10.0 mi WSW 8.1 mph 17.3 mph N/A   Overcast
12:58 PM 39.6 °F 33.0 °F 33.8 °F 80% 29.96 in 10.0 mi WSW 10.4 mph 17.3 mph N/A   Overcast
1:18 PM 38.5 °F 31.6 °F 34.5 °F 86% 29.96 in 10.0 mi WSW 10.4 mph 20.7 mph N/A   Overcast
1:38 PM 39.0 °F 31.8 °F 34.7 °F 84% 29.96 in 10.0 mi WSW 11.5 mph 19.6 mph N/A   Overcast
1:58 PM 39.2 °F 32.5 °F 34.9 °F 84% 29.96 in 10.0 mi SW 10.4 mph 20.7 mph N/A   Overcast
2:18 PM 39.2 °F 31.2 °F 35.2 °F 86% 29.97 in 10.0 mi WSW 13.8 mph 23.0 mph N/A   Overcast
2:38 PM 39.2 °F 30.5 °F 34.9 °F 84% 29.98 in 10.0 mi WSW 16.1 mph 23.0 mph N/A   Overcast
2:58 PM 39.0 °F 31.4 °F 34.3 °F 83% 29.98 in 10.0 mi WSW 12.7 mph 23.0 mph N/A   Overcast
3:18 PM 40.5 °F 33.6 °F 34.5 °F 79% 29.98 in 10.0 mi WSW 11.5 mph 21.9 mph N/A   Overcast
3:38 PM 39.7 °F 32.3 °F 35.2 °F 84% 29.98 in 10.0 mi WSW 12.7 mph 23.0 mph N/A   Overcast
3:58 PM 39.9 °F 32.9 °F 34.7 °F 82% 29.99 in 10.0 mi SW 11.5 mph 23.0 mph N/A   Overcast
4:18 PM 39.9 °F 32.1 °F 35.8 °F 85% 29.99 in 10.0 mi WSW 13.8 mph 21.9 mph N/A   Overcast
4:38 PM 40.6 °F 33.4 °F 35.6 °F 82% 29.99 in 10.0 mi West 12.7 mph 19.6 mph N/A   Overcast
4:58 PM 40.1 °F 33.2 °F 35.2 °F 83% 29.99 in 10.0 mi WSW 11.5 mph 18.4 mph N/A   Overcast
5:18 PM 40.1 °F 32.4 °F 34.5 °F 80% 29.99 in 10.0 mi WSW 13.8 mph 20.7 mph N/A   Overcast
5:38 PM 40.8 °F 34.5 °F 34.2 °F 77% 29.99 in 10.0 mi WSW 10.4 mph 17.3 mph N/A   Overcast
5:58 PM 39.6 °F 34.0 °F 34.0 °F 80% 29.99 in 10.0 mi West 8.1 mph - N/A   Mostly Cloudy
6:18 PM 40.6 °F 32.7 °F 34.3 °F 78% 30.00 in 10.0 mi WSW 15.0 mph - N/A   Mostly Cloudy
6:38 PM 39.2 °F 33.6 °F 34.0 °F 82% 30.00 in 10.0 mi West 8.1 mph 16.1 mph N/A   Overcast
6:58 PM 39.6 °F 33.5 °F 35.1 °F 84% 30.00 in 10.0 mi WSW 9.2 mph 17.3 mph N/A   Overcast
7:18 PM 39.4 °F 33.2 °F 34.9 °F 84% 30.00 in 10.0 mi WSW 9.2 mph - N/A   Overcast
7:39 PM 39.4 °F 34.5 °F 33.8 °F 80% 30.01 in 10.0 mi WSW 6.9 mph - N/A   Overcast
7:58 PM 39.4 °F 35.2 °F 33.3 °F 79% 30.01 in 10.0 mi West 5.8 mph - N/A   Overcast
8:18 PM 39.6 °F 33.0 °F 32.7 °F 76% 30.01 in 10.0 mi West 10.4 mph - N/A   Overcast
8:39 PM 39.7 °F 33.7 °F 32.0 °F 74% 30.01 in 10.0 mi West 9.2 mph - N/A   Overcast
8:58 PM 39.6 °F 33.5 °F 32.0 °F 74% 30.02 in 10.0 mi WNW 9.2 mph - N/A   Overcast
9:18 PM 38.7 °F 32.9 °F 32.0 °F 77% 30.02 in 10.0 mi West 8.1 mph - N/A   Overcast
9:38 PM 37.2 °F 31.9 °F 32.0 °F 81% 30.02 in 10.0 mi West 6.9 mph - N/A   Scattered Clouds
9:58 PM 36.7 °F 30.5 °F 32.9 °F 86% 30.03 in 10.0 mi West 8.1 mph - N/A   Clear
10:18 PM 36.5 °F 31.0 °F 33.3 °F 88% 30.03 in 10.0 mi West 6.9 mph - N/A   Scattered Clouds
10:38 PM 36.3 °F 30.1 °F 34.7 °F 94% 30.03 in 10.0 mi West 8.1 mph - N/A   Mostly Cloudy
10:58 PM 36.0 °F 29.6 °F 34.9 °F 96% 30.03 in 10.0 mi West 8.1 mph - N/A   Scattered Clouds
11:18 PM 35.4 °F 32.6 °F 34.5 °F 97% 30.03 in 10.0 mi NNW 3.5 mph - N/A   Clear
11:38 PM 35.1 °F 32.2 °F 34.7 °F 99% 30.03 in 10.0 mi NNW 3.5 mph - N/A   Mostly Cloudy
11:58 PM 35.1 °F 31.0 °F 34.0 °F 96% 30.03 in 10.0 mi WNW 4.6 mph - N/A   Overcast